• Processing (Info)

  • MPEC 2007-E62 : 2007 EK26

    The following Minor Planet Electronic Circular may be linked-to from your own Web pages, but must not otherwise be redistributed electronically.

    A form allowing access to any MPEC is at the bottom of this page.


    Read MPEC 2007-E61 Read MPEC 2007-E63


    M.P.E.C. 2007-E62                                Issued 2007 Mar. 12, 21:23 UT
    
         The Minor Planet Electronic Circulars contain information on unusual
             minor planets and routine data on comets.  They are published
       on behalf of Commission 20 of the International Astronomical Union by the
              Minor Planet Center, Smithsonian Astrophysical Observatory,
                              Cambridge, MA 02138, U.S.A.
    
                 Prepared using the Tamkin Foundation Computer Network
    
                                  MPC@CFA.HARVARD.EDU
              URL http://cfa-www.harvard.edu/iau/mpc.html  ISSN 1523-6714
    
                                       2007 EK26
    
    Observations:
         K07E26K* C2007 03 12.24872 10 35 09.78 -02 22 27.1          17.8 V EE062703
         K07E26K  C2007 03 12.25409 10 35 15.25 -02 22 22.6          17.6 V EE062703
         K07E26K  C2007 03 12.25946 10 35 20.83 -02 22 19.1          17.7 V EE062703
         K07E26K  C2007 03 12.26481 10 35 26.30 -02 22 15.3          17.9 V EE062703
         K07E26K  C2007 03 12.29082 10 35 52.47 -02 21 56.6          17.9 V EE062703
         K07E26K  C2007 03 12.29622 10 35 57.87 -02 21 52.4          17.8 V EE062703
         K07E26K  C2007 03 12.30697 10 36 08.53 -02 21 44.8          17.9 V EE062703
         K07E26K 5C2007 03 12.34276610 36 45.781-02 21 29.63         17.6 R EE062673
         K07E26K 5C2007 03 12.34693310 36 49.766-02 21 26.24                EE062673
         K07E26K 5C2007 03 12.35191010 36 54.512-02 21 22.97                EE062673
         K07E26K 5C2007 03 12.35688710 36 59.276-02 21 19.11                EE062673
         K07E26K  C2007 03 12.41436 10 37 51.45 -02 20 26.7          18.1 R EE062854
         K07E26K  C2007 03 12.41624 10 37 53.09 -02 20 25.4          17.5 R EE062854
         K07E26K  C2007 03 12.41811 10 37 54.83 -02 20 24.6          17.1 R EE062854
         K07E26K  C2007 03 12.78323 10 43 41.34 -02 17 56.5          18.3 V EE062198
         K07E26K  C2007 03 12.78617 10 43 43.43 -02 17 55.6          18.2 V EE062198
         K07E26K  C2007 03 12.78691 10 43 43.94 -02 17 55.3          18.2 V EE062198
         K07E26K  C2007 03 12.78727 10 43 44.21 -02 17 55.1          18.2 V EE062198
         K07E26K  C2007 03 12.81793 10 44 04.78 -02 17 40.5                 EE062246
         K07E26K  C2007 03 12.81900 10 44 05.47 -02 17 40.5                 EE062246
         K07E26K  C2007 03 12.81997 10 44 06.16 -02 17 39.9                 EE062246
         K07E26K  C2007 03 12.82117 10 44 06.93 -02 17 38.5                 EE062246
         K07E26K  C2007 03 12.82171 10 44 07.34 -02 17 38.2                 EE062246
         K07E26K  C2007 03 12.82245 10 44 07.81 -02 17 38.2                 EE062246
         K07E26K  C2007 03 12.82295 10 44 08.20 -02 17 38.1                 EE062246
    
    Observer details:
    198 Wildberg.  Observer R. Apitzsch.  0.35-m f/4.2 reflector + CCD.
    246 Klet Observatory-KLENOT.  Observer M. Tichy.  1.06-m KLENOT Telescope
        + CCD.
    673 Table Mountain Observatory, Wrightwood.  Observer J. Young.  0.61-m f/16
        Cassegrain + CCD.
    703 Catalina Sky Survey.  Observer A. P. Odell.  Measurers E. C. Beshore,
        E. J. Christensen, G. J. Garradd, A. R. Gibbs, A. D. Grauer, R. E. Hill,
        R. A. Kowalski, S. M. Larson, R. H. McNaught.  0.68-m Schmidt + CCD.
    854 Sabino Canyon Observatory, Tucson.  Observer J. E. McGaha.  0.36-m f/10.0
        Schmidt-Cassegrain + CCD.
    
    Orbital elements:
    2007 EK26                                                Earth MOID = 0.0019 AU
    Epoch 2007 Apr. 10.0 TT = JDT 2454200.5                 MPC
    M  30.75097              (2000.0)            P               Q
    n   0.39375339     Peri.   97.60170     +0.09564532     -0.99532217
    a   1.8435426      Node   346.88646     +0.88795589     +0.09149985
    e   0.6529004      Incl.    3.44385     +0.44987365     +0.03100889
    P   2.50           H   25.1           G   0.15           U   7
    Residuals in seconds of arc
    070312 703  0.7+  0.3-    070312 673  0.4-  0.2-    070312 246  0.3+  0.3+
    070312 703  0.5-  0.3+    070312 673  0.1-  0.1+    070312 246  0.3-  0.2-
    070312 703  0.4+  0.1-    070312 854  1.6+  0.7+    070312 246  0.2+  0.1-
    070312 703  0.3+  0.2-    070312 854  0.3-  0.6+    070312 246  0.5-  0.7+
    070312 703  0.7-  0.2-    070312 854  0.5-  0.1+    070312 246  0.1+  0.8+
    070312 703  0.3-  0.1+    070312 198  0.3+  0.2-    070312 246  0.3-  0.4+
    070312 703  0.1+  0.1-    070312 198  0.0   0.7-    070312 246  0.4+  0.2+
    070312 673  0.0   0.4-    070312 198  0.2-  0.8-
    070312 673  0.2-  0.1+    070312 198  0.0   0.8-
    
    Ephemeris:
    2007 EK26                a,e,i = 1.84, 0.65, 3                   q = 0.6399
    Date    TT    R. A. (2000) Decl.     Delta      r     Elong.  Phase     V
    2007 03 11    09 42.18   -02 43.8    0.0111   1.003   153.9    25.8    16.5
    2007 03 13    10 46.05   -02 12.7    0.0319   1.025   167.7    11.9    18.4
    2007 03 15    10 59.21   -02 04.1    0.0534   1.047   169.4    10.1    19.5
    2007 03 17    11 04.88   -01 59.6    0.0750   1.069   169.3     9.9    20.3
    2007 03 19    11 08.10   -01 56.5    0.0968   1.090   168.6    10.4    20.9
    2007 03 21    11 10.25   -01 54.1    0.119    1.112   167.5    11.2    21.4
    
    Kyle E. Smalley              (C) Copyright 2007 MPC           M.P.E.C. 2007-E62
    

    Read MPEC 2007-E61 Read MPEC 2007-E63


    MPEC number:

    Enter an MPEC number in one of the following forms:

    • 1997-B01 (the full form)
    • J97B01 (the packed version of the full form)
    • B01 (the abbreviated form)